Regional Weather Roundup
Issued by NWS Newport/Morehead, NC

Current Version | Previous Version | Graphics & Text | Print | Product List | Glossary Off
Versions: 1 2 3 4 5 6 7 8 9 10 11 12 13 14 15 16 17 18 19 20 21 22 23 24 25 26 27 28 29 30 31 32 33 34 35 36 37 38 39 40 41 42 43 44 45 46 47 48 49 50

000
ASUS42 KMHX 031225
RWRMHX
WEATHER ROUNDUP FOR EASTERN NORTH CAROLINA
NATIONAL WEATHER SERVICE NEWPORT/MOREHEAD CITY NC
800 AM EDT THU SEP 03 2015

NOTE: "FAIR" INDICATES FEW OR NO CLOUDS BELOW 12,000 FEET
WITH NO SIGNIFICANT WEATHER AND/OR OBSTRUCTIONS TO VISIBILITY

NCZ015>017-031-032-045>047-102-103-031300-
NORTH COAST

CITY           SKY/WX    TMP DP  RH WIND       PRES   REMARKS
EDENTON        SUNNY     69  69  98 CALM      29.94R FOG
ELIZABETH CITY SUNNY     72  70  93 CALM      29.93R
KITTY HAWK     SUNNY     75  71  88 W3        29.91S
MANTEO         SUNNY     74  71  88 N3        29.93R

$$

NCZ045>047-081-094-103-104-031300-
CENTRAL COAST

CITY           SKY/WX    TMP DP  RH WIND       PRES   REMARKS
FRISCO         MOSUNNY   77  72  84 N3        29.93R
SWANQUARTER      N/A     73 N/A N/A N3        29.91R

$$

NCZ095-097-098-100-101-031300-
SOUTHERN COAST

CITY           SKY/WX    TMP DP  RH WIND       PRES   REMARKS
BEAUFORT       MOSUNNY   73  71  93 NE5       29.93R
CEDAR ISLAND     N/A     77 N/A N/A NW3       29.97S
JACKSONVILLE   MOSUNNY   75  69  81 CALM      29.91S
PINEY ISLAND   SUNNY    N/A N/A N/A NW3       29.93R
WILMINGTON     MOSUNNY   75  70  84 S6        29.92F


$$

NCZ011>013-027>030-043-044-078>080-089-090>093-098-031300-
COASTAL PLAIN

CITY           SKY/WX    TMP DP  RH WIND       PRES   REMARKS
AHOSKIE        FOG       67  67  98 CALM      29.95S VSB 1/4
CLINTON        CLOUDY    72  71  99 W3        29.95S FOG
ELIZABETHTOWN  PTSUNNY   74  71  92 CALM      29.94R
GOLDSBORO      SUNNY     70  70  98 N7        29.94R
GREENVILLE     CLOUDY    70  70 100 NW5       29.97S FOG
HAVELOCK       PTSUNNY   74  69  85 N3        29.93S
KENANSVILLE    FOG       70  70  98 NW3       29.96R VSB 1
KINSTON        SUNNY     70  68  94 NW3       29.95R FOG
NEW BERN       SUNNY     72  68  87 N6        29.94R
RICHLANDS      SUNNY     72  66  83 CALM      29.94R
ROCKY MOUNT    CLOUDY    71  69  93 NW3       29.95S
WASHINGTON     FOG       69  68  98 N5        29.94S VSB 1/4
WHITEVILLE     MOSUNNY   74  72  92 CALM      29.94R

$$

AMZ130-135-150-152-154-156-158-170-250-252-270-ANZ085-086-088-633-658-670-031300-
MARINE OBSERVATIONS

STATION/POSITION TIME  TEMP    WIND        PRES    WAVE   SWELL
                       AIR SEA DIR/SP/G            HT/PER HT/PER
                 (UTC) (F)     (DEG/KT/KT) (MB)    (FT/S) (FT/S)
CHESAPEAKE LIGHT 1200   77     300/ 12/ 13 1013.8
64 E VA BEACH    1150   78 79  290/ 10/ 12 1012.4    2/ 4   2/13
DUCK             1100   73 80  280/  8/  9 1012.4
2 E DUCK         1111      80                N/A     1/13
OREGON INLET     1100   74 82  330/  5/  5 1012.7
13E OREGON INLT  1200      80                N/A     2/13
HATTERAS CG      1100   77 83  330/  9/ 11 1013.0
DIAMOND BUOY     1150   80 85  330/ 10/ 12 1013.3    2/13   2/13
CAPE LOOKOUT     1200   74     360/  8/  9 1013.2
BEAUFORT LAB     1100   72 81  340/  3/  8 1012.4
30 SE NEW RVR IN 1108   79 81  310/ 12/ 16 1013.3
30 SE NEW RVR IN 1125      81                N/A     2/ 4
27 SE WRIGHTSVLE 1200   77 82  220/  2/  2   N/A
5 SE WRIGHTSVLE  1108   78 82   90/  6/ 10 1013.4
225 S CAPE HAT   1150   83 83  330/  8/ 10 1013.7    2/14   2/14
41 SE CHARLESTON 1150   82 83  330/  2/  2 1014.0    2/ 7   2/ 7

$$


USA.gov is the U.S. government's official web portal to all federal, state and local government web resources and services.